Date String (YYYY-MM-DD hh:mm:ss) UTC,Instrument flags,absolute air pressure of the measurement (hPa),sample flow rate (lpm),inlet stack bypass flow (lpm),air temperature of the measurement (°C),ambient temperature measured by the external sensor (°C),aerosol sample conditioner tube jacket temperature (°C),OPC LED temperature (°C),internal box temperature (°C),relative humidity of the measurement (%),span deviation,mass concentration of particles derived from Lorenz-Mie calculation of OPC scattering (μg/m³),mass concentration of particles derived from Lorenz-Mie calculation of OPC scattering (μg/m³),mass concentration of particles derived from Lorenz-Mie calculation of OPC scattering (μg/m³)
DateTimeUTC,F1_M11,P_M11,Q1_M11,Q2_M11,T1_M11,T2_M11,T3_M11,T4_M11,T5_M11,U1_M11,ZSPAN_M11,X2_M11,X0_M11,X1_M11
2023-06-17 16:00:00,SystemResetWarning,0830.9,5.00,000.00,030.2,028.6,000.0,038.7,031.7,27.2,0000.0,0003.35,0004.59,0003.24
2023-06-17 16:01:00,SystemResetWarning,0830.8,5.00,000.00,030.2,028.7,000.0,038.7,031.8,28.4,0000.0,0003.38,0005.39,0003.25
2023-06-17 16:02:00,SystemResetWarning,0830.8,5.00,000.00,030.2,028.7,000.0,038.7,031.8,28.2,0000.0,0003.42,0005.58,0003.26
2023-06-17 16:03:00,SystemResetWarning,0830.8,5.00,000.00,030.2,028.4,000.0,038.7,031.8,27.9,0000.0,0003.43,0005.65,0003.26
2023-06-17 16:04:00,SystemResetWarning,0830.8,5.00,000.00,030.2,026.6,000.0,038.6,031.8,28.1,0000.0,0003.45,0005.73,0003.28
2023-06-17 16:05:00,SystemResetWarning,0830.9,5.01,000.00,030.2,025.9,000.0,038.6,031.7,28.2,0000.0,0003.47,0005.58,0003.29
2023-06-17 16:06:00,SystemResetWarning,0830.8,5.00,000.00,030.1,026.1,000.0,038.6,031.4,27.9,0000.0,0003.49,0005.63,0003.30
2023-06-17 16:07:00,SystemResetWarning,0830.8,5.00,000.00,030.0,026.4,000.0,038.6,031.3,27.9,0000.0,0003.52,0005.82,0003.32
2023-06-17 16:08:00,SystemResetWarning,0830.8,5.00,000.00,030.0,026.7,000.0,038.6,031.3,28.0,0000.0,0003.57,0006.04,0003.33
2023-06-17 16:09:00,SystemResetWarning,0830.9,5.00,000.00,030.0,027.0,000.0,038.6,031.3,27.9,0000.0,0003.61,0007.13,0003.35
2023-06-17 16:10:00,SystemResetWarning,0830.8,5.00,000.00,030.0,027.3,000.0,038.6,031.4,27.9,0000.0,0003.65,0007.50,0003.38
2023-06-17 16:11:00,SystemResetWarning,0830.8,5.00,000.00,030.0,027.6,000.0,038.6,031.4,28.9,0000.0,0003.69,0007.71,0003.40
2023-06-17 16:12:00,SystemResetWarning,0830.8,4.99,000.00,030.0,027.8,000.0,038.6,031.4,28.6,0000.0,0003.70,0007.28,0003.41
2023-06-17 16:13:00,SystemResetWarning,0830.8,4.99,000.00,030.0,027.9,000.0,038.6,031.5,29.4,0000.0,0003.71,0007.07,0003.42
2023-06-17 16:14:00,SystemResetWarning,0830.8,5.00,000.00,030.0,028.1,000.0,038.6,031.5,29.4,0000.0,0003.69,0006.96,0003.42
2023-06-17 16:15:00,SystemResetWarning,0830.8,5.00,000.00,030.0,028.2,000.0,038.6,031.5,29.3,0000.0,0003.66,0006.84,0003.41
2023-06-17 16:16:00,SystemResetWarning,0830.8,5.01,000.00,030.0,028.3,000.0,038.6,031.6,28.6,0000.0,0003.65,0006.81,0003.41
2023-06-17 16:17:00,SystemResetWarning,0830.9,5.00,000.00,030.1,028.4,000.0,038.6,031.6,28.4,0000.0,0003.64,0006.76,0003.41
2023-06-17 16:18:00,SystemResetWarning,0830.8,5.01,000.00,030.1,028.5,000.0,038.6,031.6,27.9,0000.0,0003.64,0006.66,0003.41
2023-06-17 16:19:00,SystemResetWarning,0830.8,5.00,000.00,030.1,028.6,000.0,038.6,031.6,28.8,0000.0,0003.63,0006.59,0003.40
2023-06-17 16:20:00,SystemResetWarning,0830.8,5.01,000.00,030.1,028.6,000.0,038.6,031.7,28.8,0000.0,0003.64,0006.15,0003.40
2023-06-17 16:21:00,SystemResetWarning,0830.8,4.98,000.00,030.1,027.7,000.0,038.6,031.7,28.3,0000.0,0003.66,0007.05,0003.41
2023-06-17 16:22:00,SystemResetWarning,0830.8,5.00,000.00,030.1,025.4,000.0,038.5,031.5,28.3,0000.0,0003.67,0007.22,0003.43
2023-06-17 16:23:00,SystemResetWarning,0830.8,5.01,000.00,030.1,024.5,000.0,038.5,031.4,28.4,0000.0,0003.71,0007.27,0003.46
2023-06-17 16:24:00,SystemResetWarning,0830.8,5.02,000.00,029.9,024.7,000.0,038.4,031.1,28.7,0000.0,0003.75,0007.37,0003.49
2023-06-17 16:25:00,SystemResetWarning,0830.9,5.01,000.00,029.8,025.2,000.0,038.4,031.0,29.4,0000.0,0003.78,0007.39,0003.53
2023-06-17 16:26:00,SystemResetWarning,0830.8,4.99,000.00,029.8,025.7,000.0,038.4,031.0,30.0,0000.0,0003.81,0007.43,0003.55
2023-06-17 16:27:00,SystemResetWarning,0830.8,5.00,000.00,029.7,026.1,000.0,038.4,031.0,29.2,0000.0,0003.82,0007.43,0003.57
2023-06-17 16:28:00,SystemResetWarning,0830.8,4.98,000.00,029.7,026.6,000.0,038.4,031.1,27.7,0000.0,0003.81,0007.43,0003.57
2023-06-17 16:29:00,SystemResetWarning,0830.8,5.00,000.00,029.7,026.9,000.0,038.4,031.1,28.0,0000.0,0003.80,0007.44,0003.56
2023-06-17 16:30:00,SystemResetWarning,0830.8,5.01,000.00,029.7,027.2,000.0,038.3,031.2,27.0,0000.0,0003.77,0007.39,0003.54
2023-06-17 16:31:00,SystemResetWarning,0830.8,5.00,000.00,029.7,027.4,000.0,038.3,031.2,27.2,0000.0,0003.72,0007.42,0003.51
2023-06-17 16:32:00,SystemResetWarning,0830.8,4.99,000.00,029.7,027.6,000.0,038.3,031.2,28.0,0000.0,0003.67,0006.75,0003.47
2023-06-17 16:33:00,SystemResetWarning,0830.8,4.99,000.00,029.7,027.8,000.0,038.3,031.3,26.8,0000.0,0003.62,0006.39,0003.42
2023-06-17 16:34:00,SystemResetWarning,0830.8,5.00,000.00,029.8,027.9,000.0,038.3,031.3,25.5,0000.0,0003.55,0006.27,0003.35
2023-06-17 16:35:00,SystemResetWarning,0830.9,5.00,000.00,029.8,028.0,000.0,038.3,031.3,26.0,0000.0,0003.45,0006.00,0003.28
2023-06-17 16:36:00,SystemResetWarning,0830.8,5.00,000.00,029.8,028.1,000.0,038.3,031.4,26.1,0000.0,0003.39,0005.94,0003.21
2023-06-17 16:37:00,SystemResetWarning,0830.8,5.01,000.00,029.8,028.2,000.0,038.3,031.4,25.7,0000.0,0003.34,0005.89,0003.16
2023-06-17 16:38:00,SystemResetWarning,0830.8,5.01,000.00,029.8,028.2,000.0,038.3,031.4,25.9,0000.0,0003.28,0005.80,0003.09
2023-06-17 16:39:00,SystemResetWarning,0830.8,5.00,000.00,029.8,028.3,000.0,038.4,031.4,26.3,0000.0,0003.24,0005.68,0003.02
2023-06-17 16:40:00,SystemResetWarning,0830.8,4.99,000.00,029.9,028.3,000.0,038.4,031.5,26.5,0000.0,0003.21,0005.55,0002.97
2023-06-17 16:41:00,SystemResetWarning,0830.9,4.99,000.00,029.9,028.4,000.0,038.4,031.5,26.6,0000.0,0003.21,0005.56,0002.96
2023-06-17 16:42:00,SystemResetWarning,0830.8,4.99,000.00,029.9,028.4,000.0,038.4,031.5,27.2,0000.0,0003.22,0005.10,0002.95
2023-06-17 16:43:00,SystemResetWarning,0830.8,5.00,000.00,029.9,028.5,000.0,038.4,031.5,27.2,0000.0,0003.22,0004.42,0002.96
2023-06-17 16:44:00,SystemResetWarning,0830.8,5.00,000.00,030.0,028.5,000.0,038.4,031.6,27.7,0000.0,0003.24,0004.27,0002.99
2023-06-17 16:45:00,SystemResetWarning,0830.9,5.00,000.00,030.0,028.5,000.0,038.5,031.6,27.2,0000.0,0003.27,0004.44,0003.03
2023-06-17 16:46:00,SystemResetWarning,0830.8,5.00,000.00,030.0,028.6,000.0,038.5,031.6,27.1,0000.0,0003.30,0004.47,0003.08
2023-06-17 16:47:00,SystemResetWarning,0830.9,5.00,000.00,030.0,028.5,000.0,038.5,031.6,27.6,0000.0,0003.31,0004.49,0003.11
2023-06-17 16:48:00,SystemResetWarning,0830.9,4.98,000.00,030.0,026.6,000.0,038.4,031.6,26.4,0000.0,0003.32,0004.46,0003.12
2023-06-17 16:49:00,SystemResetWarning,0830.9,5.01,000.00,030.0,025.3,000.0,038.4,031.5,26.6,0000.0,0003.36,0004.61,0003.15
2023-06-17 16:50:00,SystemResetWarning,0830.9,5.01,000.00,029.9,025.3,000.0,038.3,031.3,26.5,0000.0,0003.39,0004.72,0003.17
2023-06-17 16:51:00,SystemResetWarning,0830.9,5.00,000.00,029.8,025.7,000.0,038.3,031.1,27.3,0000.0,0003.40,0004.81,0003.18
2023-06-17 16:52:00,SystemResetWarning,0830.9,5.00,000.00,029.8,026.1,000.0,038.3,031.1,27.6,0000.0,0003.41,0004.90,0003.18
2023-06-17 16:53:00,SystemResetWarning,0830.9,5.00,000.00,029.8,026.5,000.0,038.3,031.1,27.2,0000.0,0003.40,0004.86,0003.20
2023-06-17 16:54:00,SystemResetWarning,0830.9,5.00,000.00,029.7,026.8,000.0,038.3,031.2,27.1,0000.0,0003.39,0004.81,0003.20
2023-06-17 16:55:00,SystemResetWarning,0830.9,4.99,000.00,029.7,027.1,000.0,038.3,031.2,27.9,0000.0,0003.39,0004.89,0003.20
2023-06-17 16:56:00,SystemResetWarning,0830.9,5.00,000.00,029.7,027.4,000.0,038.3,031.2,27.1,0000.0,0003.38,0005.06,0003.19
2023-06-17 16:57:00,SystemResetWarning,0830.9,4.99,000.00,029.8,027.6,000.0,038.3,031.2,26.8,0000.0,0003.38,0005.33,0003.18
2023-06-17 16:58:00,SystemResetWarning,0830.9,4.99,000.00,029.8,027.8,000.0,038.3,031.3,27.3,0000.0,0003.38,0005.50,0003.18
2023-06-17 16:59:00,SystemResetWarning,0830.9,4.99,000.00,029.8,027.9,000.0,038.3,031.3,27.2,0000.0,0003.38,0005.54,0003.17
